TimePST,TemperatureF,Dew PointF,Humidity,Sea Level PressureIn,VisibilityMPH,Wind Direction,Wind SpeedMPH,Gust SpeedMPH,PrecipitationIn,Events,Conditions,WindDirDegrees,DateUTC
12:06 AM,28.4,26.6,93,30.29,3.0,Calm,Calm,-,N/A,,Partly Cloudy,0,2013-01-18 08:06:00
12:49 AM,28.4,24.8,86,30.29,3.0,Calm,Calm,-,N/A,,Mostly Cloudy,0,2013-01-18 08:49:00
12:53 AM,27.0,25.0,92,30.32,1.0,Calm,Calm,-,N/A,,Unknown,0,2013-01-18 08:53:00
12:56 AM,26.6,24.8,93,30.29,0.8,Calm,Calm,-,N/A,,Unknown,0,2013-01-18 08:56:00
1:03 AM,28.4,26.6,93,30.29,0.2,Calm,Calm,-,N/A,,Unknown,0,2013-01-18 09:03:00
1:53 AM,28.9,27.0,92,30.32,0.2,Calm,Calm,-,N/A,,Unknown,0,2013-01-18 09:53:00
2:53 AM,32.0,32.0,100,30.31,0.2,Calm,Calm,-,N/A,,Unknown,0,2013-01-18 10:53:00
3:53 AM,30.9,30.9,100,30.32,0.2,NNE,3.5,-,N/A,,Unknown,30,2013-01-18 11:53:00
4:53 AM,30.9,30.9,100,30.31,0.2,Calm,Calm,-,N/A,,Unknown,0,2013-01-18 12:53:00
5:50 AM,30.2,30.2,100,30.27,0.2,Calm,Calm,-,N/A,,Unknown,0,2013-01-18 13:50:00
5:53 AM,30.9,30.9,100,30.30,0.2,Calm,Calm,-,N/A,,Unknown,0,2013-01-18 13:53:00
6:01 AM,32.0,30.2,93,30.27,0.2,Calm,Calm,-,N/A,,Unknown,0,2013-01-18 14:01:00
6:53 AM,30.9,30.9,100,30.30,0.2,NNE,3.5,-,N/A,Fog,Light Freezing Fog,20,2013-01-18 14:53:00
7:04 AM,30.2,30.2,100,30.28,0.2,Calm,Calm,-,N/A,Fog,Light Freezing Fog,0,2013-01-18 15:04:00
7:51 AM,30.2,30.2,100,30.30,0.2,North,4.6,-,N/A,Fog,Light Freezing Fog,360,2013-01-18 15:51:00
7:53 AM,30.9,30.0,96,30.33,0.2,North,5.8,-,N/A,Fog,Light Freezing Fog,360,2013-01-18 15:53:00
8:53 AM,30.9,30.0,96,30.34,0.2,Calm,Calm,-,N/A,Fog,Light Freezing Fog,0,2013-01-18 16:53:00
9:02 AM,32.0,30.2,93,30.30,0.1,Calm,Calm,-,N/A,Fog,Fog,0,2013-01-18 17:02:00
9:33 AM,32.0,30.2,93,30.31,0.1,Calm,Calm,-,N/A,Fog,Fog,0,2013-01-18 17:33:00
9:43 AM,32.0,32.0,100,30.31,0.1,Calm,Calm,-,N/A,Fog,Fog,0,2013-01-18 17:43:00
9:53 AM,33.1,32.0,96,30.35,0.2,Calm,Calm,-,N/A,Fog,Fog,0,2013-01-18 17:53:00
10:00 AM,33.8,32.0,93,30.31,0.2,Calm,Calm,-,N/A,Fog,Fog,0,2013-01-18 18:00:00
10:16 AM,33.8,32.0,93,30.31,0.2,ENE,3.5,-,N/A,Fog,Fog,60,2013-01-18 18:16:00
10:26 AM,33.8,32.0,93,30.32,0.2,Calm,Calm,-,N/A,Fog,Fog,0,2013-01-18 18:26:00
10:35 AM,33.8,32.0,93,30.32,0.2,ENE,4.6,-,N/A,Fog,Fog,60,2013-01-18 18:35:00
10:45 AM,33.8,33.8,100,30.32,0.2,NNE,4.6,-,N/A,Fog,Fog,30,2013-01-18 18:45:00
10:53 AM,34.0,33.1,96,30.36,0.2,NE,3.5,-,N/A,Fog,Fog,40,2013-01-18 18:53:00
11:36 AM,33.8,33.8,100,30.33,0.2,NE,4.6,-,N/A,Fog,Fog,40,2013-01-18 19:36:00
11:53 AM,35.1,35.1,100,30.36,0.2,Calm,Calm,-,N/A,Fog,Fog,0,2013-01-18 19:53:00
12:07 PM,35.6,35.6,100,30.32,1.0,Calm,Calm,-,N/A,,Overcast,0,2013-01-18 20:07:00
12:24 PM,35.6,35.6,100,30.31,2.5,Calm,Calm,-,N/A,,Overcast,0,2013-01-18 20:24:00
12:31 PM,37.4,35.6,93,30.31,3.0,NE,4.6,-,N/A,,Overcast,50,2013-01-18 20:31:00
12:39 PM,37.4,37.4,100,30.31,2.5,NNE,4.6,-,N/A,,Overcast,30,2013-01-18 20:39:00
12:53 PM,37.0,37.0,100,30.34,2.5,Variable,3.5,-,N/A,,Overcast,0,2013-01-18 20:53:00
1:51 PM,39.2,37.4,93,30.31,2.5,North,4.6,-,N/A,,Overcast,10,2013-01-18 21:51:00
1:53 PM,37.9,36.0,93,30.34,2.5,NNE,4.6,-,N/A,,Overcast,20,2013-01-18 21:53:00
2:00 PM,37.4,35.6,93,30.31,4.0,North,6.9,-,N/A,,Overcast,10,2013-01-18 22:00:00
2:11 PM,37.4,35.6,93,30.31,2.5,North,6.9,-,N/A,,Overcast,350,2013-01-18 22:11:00
2:38 PM,37.4,35.6,93,30.31,2.5,NNE,5.8,-,N/A,,Overcast,20,2013-01-18 22:38:00
2:53 PM,37.0,35.1,93,30.33,2.5,Calm,Calm,-,N/A,,Mostly Cloudy,0,2013-01-18 22:53:00
3:41 PM,37.4,35.6,93,30.32,1.8,North,3.5,-,N/A,,Mostly Cloudy,360,2013-01-18 23:41:00
3:53 PM,36.0,35.1,97,30.35,1.2,NNE,3.5,-,N/A,,Overcast,30,2013-01-18 23:53:00
4:16 PM,35.6,33.8,93,30.32,0.5,North,4.6,-,N/A,Fog,Fog,10,2013-01-19 00:16:00
4:31 PM,33.8,33.8,100,30.31,0.2,North,4.6,-,N/A,Fog,Fog,360,2013-01-19 00:31:00
4:53 PM,34.0,33.1,96,30.35,0.2,NNE,4.6,-,N/A,Fog,Fog,20,2013-01-19 00:53:00
5:53 PM,32.0,32.0,100,30.35,0.2,NNE,5.8,-,N/A,Fog,Fog,30,2013-01-19 01:53:00
6:53 PM,32.0,32.0,100,30.35,0.2,NNE,5.8,-,N/A,Fog,Fog,20,2013-01-19 02:53:00
7:53 PM,30.9,30.9,100,30.36,0.2,NNE,5.8,-,N/A,Fog,Light Freezing Fog,20,2013-01-19 03:53:00
8:50 PM,30.2,30.2,100,30.33,0.2,North,5.8,-,N/A,Fog,Light Freezing Fog,10,2013-01-19 04:50:00
8:51 PM,30.9,30.0,96,30.36,0.2,NNE,5.8,-,N/A,Fog,Light Freezing Fog,20,2013-01-19 04:51:00
9:46 PM,30.2,30.2,100,30.34,0.2,NNE,3.5,-,N/A,Fog,Light Freezing Fog,30,2013-01-19 05:46:00
9:53 PM,30.0,28.0,92,30.38,0.2,NNE,4.6,-,N/A,Fog,Light Freezing Fog,20,2013-01-19 05:53:00
10:04 PM,30.2,28.4,93,30.34,0.2,NNE,4.6,-,N/A,Fog,Light Freezing Fog,20,2013-01-19 06:04:00
10:32 PM,30.2,26.6,86,30.35,0.2,NNE,4.6,-,N/A,Fog,Light Freezing Fog,30,2013-01-19 06:32:00
10:39 PM,30.2,24.8,80,30.35,0.5,North,4.6,-,N/A,,Haze,10,2013-01-19 06:39:00
10:53 PM,30.9,26.1,82,30.39,0.5,NNE,4.6,-,N/A,,Haze,20,2013-01-19 06:53:00
11:53 PM,30.9,27.0,85,30.38,0.5,NNE,4.6,-,N/A,Fog,Light Freezing Fog,20,2013-01-19 07:53:00